Location: Austin
(30.3000°N, 97.7500°W)
Time: 10:09:38
(UTC-05:00)

COSMOS 2428 - Pass Details

Date: 26 May 2023
Orbit: 844 x 857 km, 70.9° (Epoch: 31 May)

Event Time Altitude Azimuth Distance (km) Brightness Sun altitude
Rises 22:33:50 0° 222° (SW) 3,404 5.8 -23.6°
Reaches altitude 10° 22:36:29 10° 231° (SW) 2,474 5.2 -24.0°
Maximum altitude 22:41:36 34° 295° (WNW) 1,375 4.3 -24.8°
Drops below altitude 10° 22:46:46 10° 360° (N) 2,491 5.7 -25.5°
Sets 22:49:28 0° 9° (N) 3,431 6.4 -25.9°
